EXPRESS 103

Last updated on Tue Sep 16 2025 00:02:50 GMT+0000 (Coordinated Universal Time)

1 45985U 20053A 25257.60455166 .00000000 00000+0 00000+0 0 9993 2 45985 0.0204 156.7555 0000192 103.0801 48.1268 1.00269026 18888
UTC large
Height (km)
Speed (km/s)
/
Latitude / Longitude
Inclination (degrees)
Orbital Period (minutes)
Azimuth
Elevation
Range (km)
Doppler Factor

Next 0 passes for location: London (51.5072 / 0.1276)

Sorry there are no passes over London.